When you browse on this site, cookies collect data to enhance your experience and personalize the content and advertising you see.
Visit our Privacy Policy to learn more. By continuing to use the site, you agree to this use of cookies and data.
  • Em Portugal
  • Lista de países
  • Para 7 dias
  • Temperatura da água
  • Mapas de satélite
  • Mapa do tempo
  • Widgets de tempo
  • user-avatar
    Iniciar Sessão

    Previsão horária em Melbourne

    Hoje, 24 Março, Domingo

    Tempo Temperatura Precipitação Vento Pressão Humidade
    00:00 +22°C° 0 mm 1 m/s 757 mmHg 75%
    01:00 +21°C° 0 mm 1 m/s 757 mmHg 76%
    02:00 +19°C° 0 mm 0 m/s 757 mmHg 77%
    03:00 +19°C° 0 mm 0 m/s 756 mmHg 79%
    04:00 +18°C° 0 mm 0 m/s 756 mmHg 81%
    05:00 +18°C° 0 mm 0 m/s 756 mmHg 81%
    06:00 +18°C° 0 mm 0 m/s 756 mmHg 82%
    07:00 +18°C° 0 mm 0 m/s 756 mmHg 82%
    08:00 +22°C° 0 mm 1 m/s 756 mmHg 72%
    09:00 +24°C° 0 mm 2 m/s 756 mmHg 62%
    10:00 +27°C° 0 mm 3 m/s 756 mmHg 52%
    11:00 +28°C° 0 mm 3 m/s 755 mmHg 46%
    12:00 +30°C° 0 mm 4 m/s 754 mmHg 40%
    13:00 +32°C° 0 mm 5 m/s 753 mmHg 34%
    14:00 +32°C° 0 mm 5 m/s 752 mmHg 36%
    15:00 +32°C° 0 mm 6 m/s 751 mmHg 38%
    16:00 +29°C° 0 mm 8 m/s 751 mmHg 48%
    17:00 +28°C° 0.1 mm 8 m/s 750 mmHg 50%
    18:00 +27°C° 0.1 mm 7 m/s 750 mmHg 53%
    19:00 +26°C° 0.1 mm 6 m/s 750 mmHg 56%
    20:00 +26°C° 0 mm 7 m/s 750 mmHg 58%
    21:00 +26°C° 0 mm 7 m/s 749 mmHg 60%
    22:00 +24°C° 0 mm 7 m/s 749 mmHg 64%
    23:00 +24°C° 1 mm 7 m/s 749 mmHg 65%

    Amanhã, 25 Março, Segunda-feira

    Tempo Temperatura Precipitação Vento Pressão Humidade
    00:00 +23°C° 1 mm 7 m/s 749 mmHg 66%
    01:00 +23°C° 1 mm 7 m/s 749 mmHg 68%
    02:00 +22°C° 0.1 mm 7 m/s 749 mmHg 65%
    03:00 +21°C° 0.1 mm 6 m/s 749 mmHg 62%
    04:00 +20°C° 0.1 mm 6 m/s 749 mmHg 59%
    05:00 +19°C° 0 mm 6 m/s 750 mmHg 56%
    06:00 +17°C° 0 mm 6 m/s 751 mmHg 54%
    07:00 +16°C° 0 mm 6 m/s 751 mmHg 52%
    08:00 +16°C° 0 mm 7 m/s 752 mmHg 47%
    09:00 +16°C° 0 mm 8 m/s 753 mmHg 41%
    10:00 +16°C° 0 mm 8 m/s 753 mmHg 36%
    11:00 +16°C° 0 mm 8 m/s 754 mmHg 36%
    12:00 +16°C° 0 mm 8 m/s 755 mmHg 36%
    13:00 +16°C° 0 mm 8 m/s 755 mmHg 35%
    14:00 +16°C° 0 mm 8 m/s 755 mmHg 35%
    15:00 +16°C° 0 mm 7 m/s 755 mmHg 34%
    16:00 +16°C° 0 mm 7 m/s 756 mmHg 34%
    17:00 +15°C° 0 mm 7 m/s 756 mmHg 34%
    18:00 +15°C° 0 mm 6 m/s 757 mmHg 35%
    19:00 +14°C° 0 mm 6 m/s 757 mmHg 35%
    20:00 +14°C° 0 mm 6 m/s 758 mmHg 37%
    21:00 +13°C° 0 mm 6 m/s 758 mmHg 39%
    22:00 +13°C° 0 mm 6 m/s 759 mmHg 41%
    23:00 +13°C° 0 mm 6 m/s 759 mmHg 43%

    Depois de amanhã, 26 Março, Terça-feira

    Tempo Temperatura Precipitação Vento Pressão Humidade
    00:00 +13°C° 0 mm 6 m/s 760 mmHg 45%
    01:00 +11°C° 0 mm 6 m/s 760 mmHg 48%
    02:00 +11°C° 0 mm 6 m/s 760 mmHg 51%
    03:00 +11°C° 0 mm 6 m/s 760 mmHg 55%
    04:00 +12°C° 0 mm 5 m/s 760 mmHg 59%
    05:00 +12°C° 0 mm 5 m/s 761 mmHg 60%
    06:00 +12°C° 0 mm 5 m/s 762 mmHg 62%
    07:00 +12°C° 0 mm 5 m/s 762 mmHg 63%
    08:00 +13°C° 0 mm 5 m/s 763 mmHg 59%
    09:00 +14°C° 0 mm 5 m/s 763 mmHg 54%
    10:00 +16°C° 0 mm 5 m/s 764 mmHg 50%
    11:00 +17°C° 0 mm 5 m/s 764 mmHg 47%
    12:00 +19°C° 0 mm 5 m/s 764 mmHg 44%
    13:00 +19°C° 0 mm 4 m/s 764 mmHg 40%
    14:00 +20°C° 0 mm 4 m/s 764 mmHg 39%
    15:00 +20°C° 0 mm 3 m/s 764 mmHg 38%
    16:00 +20°C° 0 mm 3 m/s 764 mmHg 36%
    17:00 +19°C° 0 mm 3 m/s 764 mmHg 42%
    18:00 +18°C° 0 mm 3 m/s 765 mmHg 48%
    19:00 +17°C° 0 mm 3 m/s 765 mmHg 54%
    20:00 +16°C° 0 mm 2 m/s 766 mmHg 58%
    21:00 +15°C° 0 mm 2 m/s 766 mmHg 63%
    22:00 +15°C° 0 mm 2 m/s 767 mmHg 67%
    23:00 +14°C° 0 mm 1 m/s 767 mmHg 69%

    27 Março, Quarta-feira

    Tempo Temperatura Precipitação Vento Pressão Humidade
    00:00 +14°C° 0 mm 1 m/s 767 mmHg 71%
    01:00 +14°C° 0 mm 1 m/s 767 mmHg 72%
    02:00 +13°C° 0 mm 1 m/s 767 mmHg 74%
    03:00 +13°C° 0 mm 1 m/s 767 mmHg 75%
    04:00 +13°C° 0 mm 1 m/s 767 mmHg 77%
    05:00 +13°C° 0 mm 1 m/s 767 mmHg 77%
    06:00 +12°C° 0 mm 1 m/s 767 mmHg 78%
    07:00 +12°C° 0 mm 1 m/s 767 mmHg 79%
    08:00 +14°C° 0 mm 0 m/s 767 mmHg 69%
    09:00 +16°C° 0 mm 0 m/s 767 mmHg 60%
    10:00 +18°C° 0 mm 0 m/s 767 mmHg 50%
    11:00 +22°C° 0 mm 1 m/s 767 mmHg 45%
    12:00 +23°C° 0 mm 1 m/s 766 mmHg 40%
    13:00 +25°C° 0 mm 1 m/s 766 mmHg 34%
    14:00 +25°C° 0 mm 2 m/s 765 mmHg 34%
    15:00 +25°C° 0 mm 2 m/s 764 mmHg 34%
    16:00 +25°C° 0 mm 3 m/s 764 mmHg 34%
    17:00 +22°C° 0 mm 3 m/s 764 mmHg 41%
    18:00 +20°C° 0 mm 3 m/s 764 mmHg 48%
    19:00 +19°C° 0 mm 3 m/s 764 mmHg 55%
    20:00 +18°C° 0 mm 2 m/s 764 mmHg 60%
    21:00 +17°C° 0 mm 2 m/s 764 mmHg 64%
    22:00 +16°C° 0 mm 2 m/s 764 mmHg 69%
    23:00 +16°C° 0 mm 1 m/s 764 mmHg 69%

    28 Março, Quinta-feira

    Tempo Temperatura Precipitação Vento Pressão Humidade
    00:00 +16°C° 0 mm 1 m/s 763 mmHg 69%
    01:00 +15°C° 0 mm 0 m/s 763 mmHg 69%
    02:00 +15°C° 0 mm 1 m/s 762 mmHg 67%
    03:00 +15°C° 0 mm 1 m/s 762 mmHg 65%
    04:00 +15°C° 0 mm 2 m/s 761 mmHg 63%
    05:00 +15°C° 0 mm 2 m/s 761 mmHg 61%
    06:00 +15°C° 0 mm 2 m/s 761 mmHg 60%
    07:00 +14°C° 0 mm 3 m/s 761 mmHg 58%
    08:00 +18°C° 0 mm 3 m/s 761 mmHg 55%
    09:00 +20°C° 0 mm 4 m/s 761 mmHg 52%
    10:00 +22°C° 0 mm 4 m/s 761 mmHg 49%
    11:00 +25°C° 0 mm 4 m/s 760 mmHg 42%
    12:00 +27°C° 0 mm 3 m/s 759 mmHg 34%
    13:00 +29°C° 0 mm 3 m/s 759 mmHg 26%
    14:00 +29°C° 0 mm 3 m/s 758 mmHg 24%
    15:00 +29°C° 0 mm 3 m/s 757 mmHg 23%
    16:00 +29°C° 0 mm 3 m/s 757 mmHg 21%
    17:00 +27°C° 0 mm 3 m/s 757 mmHg 27%
    18:00 +25°C° 0 mm 3 m/s 757 mmHg 32%
    19:00 +22°C° 0 mm 3 m/s 758 mmHg 38%
    20:00 +21°C° 0 mm 3 m/s 758 mmHg 49%
    21:00 +19°C° 0 mm 3 m/s 758 mmHg 61%
    22:00 +18°C° 0 mm 2 m/s 758 mmHg 72%
    23:00 +17°C° 0 mm 2 m/s 758 mmHg 75%

    29 Março, Sexta-feira

    Tempo Temperatura Precipitação Vento Pressão Humidade
    00:00 +18°C° 0 mm 1 m/s 758 mmHg 78%
    01:00 +16°C° 0 mm 1 m/s 757 mmHg 81%
    02:00 +15°C° 0 mm 0 m/s 757 mmHg 80%
    03:00 +15°C° 0 mm 0 m/s 757 mmHg 78%
    04:00 +14°C° 0 mm 0 m/s 756 mmHg 77%
    05:00 +15°C° 0 mm 1 m/s 756 mmHg 77%
    06:00 +15°C° 0 mm 1 m/s 756 mmHg 77%
    07:00 +15°C° 0 mm 1 m/s 757 mmHg 78%
    08:00 +17°C° 0 mm 2 m/s 757 mmHg 69%
    09:00 +19°C° 0 mm 3 m/s 757 mmHg 61%
    10:00 +21°C° 0 mm 3 m/s 757 mmHg 53%
    11:00 +21°C° 0.1 mm 4 m/s 756 mmHg 55%
    12:00 +20°C° 0.1 mm 5 m/s 756 mmHg 58%
    13:00 +19°C° 0.1 mm 5 m/s 756 mmHg 60%
    14:00 +19°C° 0 mm 6 m/s 756 mmHg 53%
    15:00 +19°C° 0 mm 6 m/s 756 mmHg 45%
    16:00 +20°C° 0 mm 6 m/s 756 mmHg 38%
    17:00 +17°C° 0 mm 6 m/s 756 mmHg 42%
    18:00 +16°C° 0 mm 5 m/s 757 mmHg 45%
    19:00 +15°C° 0 mm 5 m/s 758 mmHg 49%
    20:00 +14°C° 0.1 mm 5 m/s 758 mmHg 52%
    21:00 +14°C° 0.1 mm 5 m/s 759 mmHg 55%
    22:00 +13°C° 0.1 mm 5 m/s 759 mmHg 57%
    23:00 +12°C° 0 mm 5 m/s 759 mmHg 58%
    Mostrar mais